Dewpoint
20 19 18 18 20 21 21 22 22 22 20 21 19 22 24 26 26 27 26 27 27 27 27 28 29 30 30 29 29 29 29 28 29 30 29 28 27 26 26 24 24 23 22 21 22 20 18 16 15 17 18 19 19 20 20 21 22 23 22 22 21 20 19 17 12 20 23 23 23 25 25 23 23 23 23 23 21 19 20 21 20 20 19 19 21
21 21 21 19 19 18 20 21 21 20 19 20 18 21 22 22 24 25 25 26 26 26 26 27 27 27 28 29 29 28 28 29 28 27 27 27 26 28 28 24 23 23 22 21 19 22 19 17 15 14 15 18 18 18 18 19 20 19 17 19 16 19 18 20 15 19 18 20 23 25 24 24 21 23 22 21 21 20 18 19 20 20 20 20 20
22 23 21 18 18 19 21 19 19 17 18 19 16 17 21 23 24 24 25 25 25 25 25 25 25 25 25 26 27 28 28 27 27 26 25 25 25 25 27 25 23 22 21 21 20 18 17 17 15 13 19 16 17 16 18 18 19 16 14 14 12 12 14 15 12 15 17 19 22 22 22 23 21 21 22 23 22 21 19 19 20 23 23 21 20
20 21 21 16 16 17 17 21 18 18 17 17 17 18 19 20 23 25 25 25 25 25 25 25 25 24 25 24 25 26 27 27 27 26 25 24 24 24 23 24 24 23 22 21 20 18 17 16 15 13 13 15 15 14 14 15 16 16 14 12 11 9 11 11 11 6 15 17 19 20 22 21 20 22 23 22 19 19 19 20 21 22 22 23 20
17 19 18 14 13 13 15 17 16 16 19 18 18 19 20 20 22 22 23 24 25 25 25 25 25 24 26 24 24 24 25 25 26 25 25 24 24 23 23 22 22 22 22 22 23 20 19 17 16 14 13 14 14 15 13 15 16 15 14 12 11 9 10 8 6 8 12 15 19 20 20 20 20 20 20 18 18 18 19 18 19 20 20 21 23
14 15 16 15 15 13 13 16 18 18 16 16 17 19 20 22 23 24 23 23 24 25 25 24 25 24 24 24 24 24 24 24 24 24 24 24 23 23 23 22 21 21 21 21 21 21 20 18 18 16 14 14 13 15 15 15 16 17 15 13 12 11 10 8 5 3 9 11 16 16 18 18 16 16 18 17 16 15 15 17 19 20 19 19 20
14 14 15 14 13 11 11 14 18 19 19 18 18 19 18 20 22 24 24 24 23 23 22 23 24 25 25 25 25 25 25 25 26 25 25 24 24 22 23 22 21 21 20 20 20 20 20 20 19 18 16 15 16 16 15 16 20 18 17 16 14 13 13 10 7 6 8 11 13 14 14 14 13 12 15 15 15 14 14 14 15 18 19 18 19
13 13 13 13 12 13 14 14 18 21 22 21 20 18 18 20 22 23 25 25 25 23 21 23 23 24 24 25 25 25 25 24 25 26 25 24 24 23 23 23 22 22 21 21 20 19 19 19 19 18 17 16 15 14 14 14 19 17 16 16 15 14 13 15 10 9 9 9 11 11 11 11 10 11 16 14 13 13 14 14 13 15 17 18 18
13 12 12 12 13 13 14 15 19 20 20 21 20 20 20 20 21 22 23 24 26 25 24 24 22 22 23 24 24 25 26 26 26 25 25 25 25 24 24 24 23 23 22 20 19 19 19 19 18 18 20 22 23 22 20 20 20 20 20 17 20 18 18 18 16 12 15 13 11 9 9 8 8 9 12 11 11 11 13 14 13 15 17 18 18
14 13 13 13 13 14 14 14 16 19 20 20 19 19 19 18 20 22 24 24 23 22 23 24 22 21 21 22 23 26 26 27 29 30 31 28 26 26 25 25 24 23 22 21 20 19 19 19 22 24 24 24 24 25 26 25 25 21 19 19 21 21 21 19 18 15 15 15 14 10 11 9 7 7 10 11 11 11 14 15 14 15 16 16 18
15 13 14 14 14 14 15 15 16 18 19 19 22 22 19 19 21 22 25 26 26 24 23 22 22 22 21 21 21 24 25 27 30 32 33 33 30 28 28 28 27 24 23 22 21 20 19 18 19 21 24 25 24 26 27 27 27 27 26 24 23 22 21 20 19 19 16 16 14 13 10 8 6 7 10 10 11 10 12 14 15 15 14 15 15
15 14 14 14 15 15 14 16 17 19 20 22 21 21 21 21 21 22 25 27 26 25 23 23 22 21 21 21 21 22 23 27 30 31 32 33 32 30 29 29 29 26 25 24 23 22 20 19 18 20 19 19 19 20 24 27 27 27 28 27 27 27 26 22 19 19 19 15 16 15 11 8 5 6 9 10 11 10 13 14 12 12 14 15 13
15 15 15 15 14 14 15 17 18 20 21 21 21 21 20 19 19 20 20 22 26 25 23 23 22 23 22 21 21 21 21 27 29 30 31 32 33 32 29 29 29 29 27 26 24 23 21 21 20 19 21 24 24 19 17 20 26 27 27 27 27 28 27 28 25 22 20 19 18 16 9 8 5 6 9 9 12 10 14 13 12 10 12 12 12
15 15 16 16 15 14 15 19 19 20 20 21 20 20 19 18 18 18 19 20 23 25 24 24 23 22 22 22 20 19 21 25 28 30 31 30 31 32 31 30 29 29 27 27 26 25 23 22 20 19 18 19 19 19 18 17 17 20 22 22 21 23 27 28 26 26 23 18 16 17 9 8 5 6 11 14 12 15 14 14 13 13 13 13 16
16 16 16 15 15 17 17 18 18 18 19 19 19 18 17 18 17 17 16 17 19 21 22 22 22 23 23 22 21 21 20 26 27 28 28 30 31 32 30 30 29 29 27 27 26 25 24 24 21 19 18 17 18 19 18 18 21 24 25 25 23 20 20 21 21 20 19 17 15 12 10 9 7 11 13 15 14 14 15 15 15 15 17 18 18
16 15 15 15 15 14 15 17 17 18 18 18 17 17 17 17 15 15 16 15 16 17 19 21 22 22 22 22 20 20 19 24 26 28 29 29 30 30 30 30 30 30 29 28 27 26 25 24 23 23 21 19 23 26 24 20 24 24 24 25 24 23 22 25 26 26 21 16 15 14 13 13 20 16 16 16 17 19 23 22 22 21 20 18 17
14 14 15 13 14 13 14 15 16 16 16 17 17 16 15 14 14 14 14 13 14 15 18 19 19 20 21 21 21 21 22 24 25 27 28 28 29 28 29 29 29 29 29 29 28 27 26 25 23 22 22 21 25 30 29 28 23 24 24 24 25 24 23 22 27 29 27 24 22 22 23 23 24 24 25 24 22 23 21 19 18 19 17 16 16
13 15 12 15 12 11 13 15 15 15 16 16 15 15 13 14 13 13 12 12 12 13 16 18 18 18 19 20 21 20 21 23 24 25 27 27 28 28 27 27 27 28 28 28 28 28 27 28 27 23 22 21 26 31 31 28 24 24 24 24 24 24 23 22 22 24 27 24 23 23 24 25 25 25 26 26 26 25 19 16 19 18 15 14 13
12 12 11 9 9 11 12 13 14 14 13 14 14 13 13 12 13 13 11 12 12 12 14 16 16 16 16 16 18 18 19 21 23 25 25 26 26 27 27 27 27 27 27 27 28 28 27 28 29 28 24 23 27 31 30 28 25 24 24 23 23 23 24 23 23 23 23 21 19 19 22 23 23 22 23 26 26 25 19 18 20 17 14 14 13
9 8 7 8 9 11 12 12 12 13 12 12 12 11 11 11 11 10 11 10 10 10 11 12 13 13 13 14 14 14 14 15 19 22 24 24 26 26 25 25 26 26 26 27 27 28 28 28 28 30 31 29 28 29 29 31 24 24 23 23 23 22 22 23 23 23 22 20 19 18 18 20 21 21 22 23 24 23 19 19 19 18 16 15 12
6 6 7 8 9 10 9 10 10 10 10 9 9 9 9 10 10 9 8 9 9 9 10 11 10 10 10 10 9 10 11 13 16 21 22 24 25 27 25 25 25 25 25 26 27 27 27 27 27 29 30 31 29 28 29 30 28 24 22 23 22 23 25 22 23 24 21 21 21 20 19 21 22 21 21 22 22 21 20 20 18 17 17 14 12
4 7 7 7 7 7 6 6 6 6 6 6 6 5 6 7 7 7 7 7 7 7 8 8 7 7 7 7 8 8 11 14 12 17 20 22 24 26 24 23 25 25 25 25 26 27 27 27 26 27 30 31 30 29 29 30 30 25 22 26 26 27 25 22 22 22 20 20 19 19 19 19 20 20 21 22 22 22 20 19 16 15 14 15 13
4 4 4 3 3 3 3 3 3 3 3 3 4 3 2 3 3 5 5 5 5 5 5 5 5 6 7 8 9 10 10 12 16 16 20 22 23 24 26 25 26 27 25 25 25 26 27 28 27 28 29 29 30 30 29 29 30 27 28 28 27 28 26 21 21 21 19 19 19 18 18 19 19 19 20 20 21 21 19 14 14 12 12 13 12
2 2 2 1 1 0 1 1 1 1 1 1 1 1 1 1 1 1 1 2 2 2 2 4 4 5 4 6 7 8 10 10 14 18 18 21 20 25 25 25 27 26 26 25 25 25 27 28 28 29 28 29 29 30 30 29 27 29 30 28 28 28 23 21 20 20 20 20 19 19 18 19 19 19 19 17 14 15 13 12 12 12 11 13 11
0 -1 -1 -1 -1 -1 -1 -1 -1 -1 -1 -1 -2 -2 -2 -1 -2 -1 1 0 0 1 1 2 2 3 3 4 4 6 9 10 11 16 19 22 21 25 24 25 27 28 27 27 27 26 28 29 30 29 29 29 29 29 29 29 29 29 29 29 28 24 23 20 19 20 19 20 18 18 18 19 18 18 15 14 13 13 14 13 14 15 15 14 14
-2 -2 -2 -2 -2 -2 -2 -2 -2 -2 -2 -2 -3 -3 -3 -3 -4 -4 -3 -3 -2 -2 -1 -0 0 2 2 3 4 5 8 8 11 14 17 19 20 22 23 23 24 26 27 27 29 29 30 30 30 30 28 28 27 27 27 27 28 28 28 29 26 24 22 20 20 19 19 19 18 18 18 18 17 16 15 13 14 13 13 12 12 11 11 10 9
-3 -3 -3 -3 -3 -3 -3 -4 -4 -3 -3 -4 -4 -4 -5 -5 -5 -5 -5 -5 -5 -4 -3 -1 -1 -0 0 1 3 4 6 8 10 13 15 16 18 20 21 21 22 25 25 26 27 28 28 29 29 29 27 28 28 28 28 28 28 28 27 28 27 25 22 20 20 19 19 19 18 18 17 17 17 15 14 13 13 12 12 11 9 9 9 8 7
-4 -4 -4 -4 -5 -4 -5 -4 -4 -5 -5 -5 -6 -6 -6 -6 -6 -7 -7 -7 -7 -7 -6 -5 -4 -4 -3 -2 -0 1 3 5 7 10 15 17 19 20 20 21 21 21 22 24 25 26 27 29 29 28 27 26 26 26 27 27 27 26 26 27 27 25 23 23 22 20 20 19 19 17 17 16 15 14 13 13 12 12 11 10 8 8 8 7 6
-4 -4 -4 -5 -6 -5 -5 -5 -6 -7 -7 -6 -7 -6 -6 -7 -7 -7 -4 -4 -6 -6 -6 -6 -5 -4 -3 -3 -2 -0 2 4 6 13 12 16 16 17 19 20 20 21 22 24 24 25 26 27 26 26 25 24 24 25 25 25 25 26 26 27 26 24 22 20 19 19 19 18 17 16 15 15 14 13 12 11 11 10 10 9 9 8 7 7 6
-5 -5 -5 -6 -6 -6 -7 -8 -7 -8 -8 -8 -7 -6 -2 7 3 -3 -3 6 10 11 11 1 1 2 1 1 2 1 2 4 13 16 17 18 21 23 23 24 24 23 23 25 24 23 24 24 24 24 23 23 23 23 24 24 24 24 25 26 25 23 21 20 19 18 18 18 17 15 14 13 12 11 11 10 9 9 9 10 8 8 6 6 5
-6 -7 -7 -7 -7 -7 -8 -9 -8 -8 -8 -8 -8 -8 -8 -7 6 9 10 9 10 11 12 14 14 15 7 4 7 15 16 17 18 18 19 20 21 22 22 23 24 25 26 24 23 23 24 22 23 23 22 22 22 22 23 23 23 23 24 24 24 21 20 19 18 18 17 16 14 13 13 11 10 10 9 8 8 7 8 8 8 7 6 6 5
-7 -8 -8 -8 -8 -8 -9 -9 -8 -8 -9 -8 -8 -9 -9 -10 -9 2 7 9 10 11 12 12 13 13 14 12 10 6 12 16 17 18 19 20 21 21 22 22 23 24 26 26 23 23 24 22 21 21 21 21 21 22 22 22 22 22 23 22 22 20 20 18 18 17 16 14 12 12 11 10 10 9 9 8 7 7 6 6 6 6 6 6 5
-7 -8 -8 -8 -9 -9 -9 -9 -9 -9 -9 -8 -8 -8 -9 -10 -11 -10 -7 5 8 9 10 11 12 12 13 14 14 14 15 15 16 16 17 18 19 20 22 23 23 24 24 23 23 22 23 22 21 21 21 21 21 21 21 22 22 22 22 21 20 19 19 19 18 15 14 13 11 11 10 9 9 8 8 7 6 5 6 5 6 5 5 5 5
-7 -8 -8 -8 -9 -9 -9 -9 -9 -9 -9 -8 -8 -9 -9 -9 -9 -9 -10 -9 -8 -1 6 8 10 11 11 12 13 13 14 14 15 16 16 17 19 20 21 20 23 24 24 22 23 23 22 21 20 20 20 20 21 21 21 21 21 21 21 20 18 17 17 17 15 13 13 12 11 10 10 9 8 7 6 6 6 6 5 5 5 5 4 4 4
-7 -7 -6 -7 -8 -9 -9 -9 -9 -9 -8 -8 -8 -8 -9 -8 -8 -8 -9 -9 -9 -9 -8 -7 2 8 2 6 10 12 13 14 15 16 17 17 18 19 20 16 18 20 21 22 23 23 22 21 20 20 20 20 20 20 21 21 21 20 19 17 16 15 14 14 13 13 12 11 10 10 9 8 8 7 6 5 5 4 4 4 4 4 4 4 4
-7 -8 -8 -8 -8 -8 -9 -8 -8 -8 -8 -8 -7 -7 -7 -7 -7 -7 -7 -7 -7 -7 -7 -6 -5 5 9 10 12 12 13 14 14 15 16 17 19 19 12 12 16 20 21 22 22 23 23 22 21 20 20 20 20 20 21 21 19 18 17 16 14 13 13 13 12 12 11 11 10 10 10 8 7 6 6 5 5 4 4 4 4 4 4 4 4
-8 -8 -8 -8 -8 -8 -8 -7 -7 -7 -2 -6 -6 -6 -6 -6 -6 -7 -7 -7 -7 -7 -7 -6 -6 -5 2 0 4 9 13 14 16 17 17 18 20 17 13 13 16 19 22 21 21 22 23 22 21 21 20 20 20 20 20 19 17 17 17 15 14 13 12 12 12 11 10 10 9 9 8 7 6 5 5 4 4 4 4 4 4 4 4 5 5
-7 -8 -8 -7 -7 -7 -7 -7 -7 -4 -5 -6 -6 -6 -6 -6 -6 -6 -6 -7 -6 -6 -6 -6 -0 -5 -6 -5 3 4 4 12 15 16 16 18 18 18 17 17 18 20 21 22 21 22 23 22 21 20 20 20 20 20 19 17 16 16 15 14 12 11 14 13 13 11 10 10 9 8 7 6 5 5 5 4 3 3 3 4 3 3 4 4 4
-8 -6 -6 -5 -1 -6 -7 -6 -6 -6 -6 -6 -6 -6 -6 -6 -6 -6 -6 -6 -5 -5 -5 -5 -5 -5 -4 -3 -2 2 5 4 6 9 13 16 17 18 18 19 19 21 22 21 21 22 22 21 21 20 20 20 19 19 17 16 15 15 14 12 11 11 13 12 11 10 9 7 6 6 5 5 4 4 4 3 3 3 3 3 4 3 3 3 3
-9 -9 -8 -5 -6 -7 -6 -6 -6 -6 -6 -6 -6 -6 -5 -5 -6 -5 -5 -5 -5 -4 -4 -4 -4 -4 -3 -1 0 1 3 5 7 9 12 14 15 17 18 19 20 22 22 22 22 22 22 21 21 20 19 19 18 17 16 15 15 14 11 11 11 11 12 11 9 8 7 6 5 5 4 4 4 4 4 3 3 3 3 3 3 4 3 3 3
-10 -9 -8 -6 -6 -6 -6 -6 -6 -6 -6 -6 -6 -5 -5 -4 -4 -3 -4 -3 -3 -3 -3 -3 -3 -2 0 3 11 12 8 9 11 13 13 14 15 16 17 19 22 21 22 21 22 23 21 21 19 19 18 17 17 16 16 15 14 12 11 11 10 10 10 9 8 7 7 6 5 4 4 4 3 3 3 3 6 5 4 3 3 3 4 3 3
-10 -9 -9 -8 -7 -7 -7 -7 -6 -5 -5 -4 -5 -4 -3 -3 -2 -2 -2 -1 -1 -1 -1 -1 -1 -0 4 11 13 14 11 12 13 13 14 15 16 17 18 20 23 22 22 22 21 20 19 18 17 17 16 16 15 15 15 14 12 11 10 10 9 9 8 8 7 7 6 5 4 4 4 3 3 3 3 7 3 3 3 3 3 3 3 3 4
-9 -9 -9 -8 -8 -8 -7 -7 -6 -6 -5 -5 -4 -2 -2 -1 -1 0 1 1 1 1 1 1 1 3 4 10 10 13 11 11 12 14 15 15 16 16 16 17 20 20 20 19 18 17 16 15 15 15 15 15 14 14 14 13 11 10 10 10 9 8 8 7 7 6 6 5 4 3 3 4 3 3 3 3 2 2 2 2 3 3 3 3 3
-9 -9 -8 -8 -8 -8 -7 -7 -6 -5 -5 -3 -2 -2 -1 -1 -1 -0 1 3 3 3 3 3 3 4 5 8 10 10 10 10 11 12 12 11 12 13 14 15 17 17 17 16 16 15 15 14 14 14 15 14 14 14 14 13 12 10 10 10 8 8 7 6 6 6 5 4 3 3 3 3 2 3 3 3 2 2 2 2 2 2 2 2 3
-10 -10 -10 -10 -9 -8 -8 -7 -6 -6 -4 -4 -4 -4 -2 -2 -2 -2 -1 -0 1 1 2 3 4 4 5 4 4 5 5 6 7 7 7 8 10 10 11 12 13 14 14 13 13 14 13 13 13 13 13 13 12 12 13 12 11 10 10 10 8 7 7 6 6 5 4 3 2 2 2 2 2 2 2 2 2 2 2 2 2 2 2 2 2
-10 -10 -10 -10 -9 -9 -8 -8 -6 -7 -6 -6 -6 -6 -4 -4 -3 -2 -2 -2 -2 -1 -1 -0 -0 0 1 0 0 1 1 2 3 4 4 5 6 7 9 9 10 11 12 12 12 13 13 13 12 12 11 11 11 11 11 11 11 11 11 10 9 8 7 6 6 4 3 3 2 2 1 1 2 2 2 1 1 1 1 2 2 2 2 2 2
-11 -11 -10 -10 -10 -9 -9 -8 -8 -8 -7 -7 -6 -6 -6 -5 -4 -3 -3 -3 -3 -3 -3 -3 -3 -3 -2 -2 -2 -2 -1 0 1 1 2 3 3 4 4 6 7 7 8 8 9 9 9 9 9 8 8 8 9 9 9 10 10 10 8 8 7 6 6 5 4 4 3 3 2 2 1 1 1 1 1 1 1 1 1 1 2 2 2 2 2
-11 -11 -11 -10 -10 -10 -10 -10 -9 -7 -9 -8 -8 -7 -6 -6 -6 -6 -6 -5 -5 -5 -5 -5 -6 -5 -4 -4 -3 -3 -2 -2 -2 -1 -1 -0 1 1 2 2 2 2 3 4 5 5 5 6 7 7 7 7 7 7 8 8 7 7 6 5 5 5 4 4 4 3 3 2 2 1 1 0 0 0 0 0 1 1 1 1 2 2 2 2 2
-11 -11 -11 -11 -11 -11 -11 -11 -10 -10 -10 -10 -9 -9 -8 -8 -8 -8 -7 -7 -7 -7 -7 -7 -7 -7 -6 -6 -5 -4 -4 -3 -4 -4 -3 -2 -1 -1 -0 -0 -0 -0 -0 0 1 2 3 3 4 4 4 4 4 3 3 3 3 3 3 3 4 4 4 3 3 2 2 2 1 1 1 0 -0 -0 0 0 1 1 1 1 1 2 2 2 2
-12 -11 -11 -11 -11 -11 -11 -11 -11 -11 -10 -10 -10 -10 -9 -9 -9 -9 -9 -8 -9 -8 -8 -8 -8 -7 -7 -6 -6 -6 -5 -5 -5 -5 -5 -4 -4 -3 -2 -1 -1 -1 -1 -1 -1 -0 0 1 1 1 2 2 2 1 1 0 1 1 2 3 4 3 3 3 3 3 1 0 0 -0 -1 -1 -1 -1 -1 -1 -0 -0 0 1 1 2 2 2 2
-13 -13 -12 -11 -11 -11 -11 -12 -11 -11 -11 -11 -11 -11 -11 -11 -10 -9 -9 -9 -9 -9 -8 -9 -8 -8 -7 -7 -6 -6 -6 -6 -6 -6 -6 -5 -5 -5 -4 -4 -4 -4 -4 -3 -3 -2 -1 -1 -1 -1 -1 -2 -2 -1 -1 -1 -0 1 2 2 3 2 2 1 0 1 1 0 -2 -2 -2 -2 -2 -2 -2 -1 -1 -1 1 1 1 2 2 2 2